Regional Weather Roundup
Issued by NWS Sterling, VA

Home | Current Version | Previous Version | Graphics & Text | Print | Product List | Glossary On
Versions: 1 2 3 4 5 6 7 8 9 10 11 12 13 14 15 16 17 18 19 20 21 22 23 24 25 26 27 28 29 30 31 32 33 34 35 36 37 38 39 40 41 42 43 44 45 46 47 48 49 50
000
ASUS41 KLWX 201710
RWRLWX

REGIONAL WEATHER ROUNDUP
NATIONAL WEATHER SERVICE BALTIMORE MD/WASHINGTON DC
1200 PM EST FRI JAN 20 2017

Note: "FAIR" indicates few or no clouds below 12,000 feet
with no significant weather and/or obstructions to visibility.
 TC=TEMPERATURE CELSIUS

 * =Non NWS site. Station does not report precipitation (e.g. rain,
    snow, etc.), thunder, or fog.

DCZ001-MDZ009-015-VAZ040>042-051-053>054-201800-
WASHINGTON METRO

CITY           SKY/WX    TMP DP  RH WIND       PRES   REMARKS
WASHINGTON NAT CLOUDY    48  41  76 S5        29.92F
DULLES         LGT RAIN  44  41  89 S6        29.91F
ANDREWS AFB    PTSUNNY   45  39  80 SE6       29.90F
FT BELVOIR     LGT RAIN  46  40  79 S5        29.92F
QUANTICO       LGT RAIN  45  42  89 W3        29.94F
COLLEGE PARK*  CLOUDY    43  37  81 SE6       29.90F
LEESBURG*      DRIZZLE   45  45 100 MISG      29.91R
MANASSAS*      LGT RAIN N/A N/A N/A S6        29.92F
GAITHERSBURG*  CLOUDY    43  37  81 SE8       29.94F

$$

MDZ006>007-011-014-201800-
BALTIMORE METRO

CITY           SKY/WX    TMP DP  RH WIND       PRES   REMARKS
BWI AIRPORT    CLOUDY    41  41 100 E8        29.93F FOG
MD SCIENCE CTR   N/A     42  37  82 MISG      29.95F
MARTIN STATE   CLOUDY    41  41 100 CALM      29.97F FOG
ANNAPOLIS      CLOUDY    42  38  85 SE6       29.94F FOG
FORT MEADE*    CLOUDY    43  39  87 E6        29.94F

$$

MDZ012-015-019>023-201800-
MARYLAND EASTERN SHORE

CITY           SKY/WX    TMP DP  RH WIND       PRES   REMARKS
OCEAN CITY     LGT RAIN  44  43  96 CALM      29.97F FOG
SALISBURY      CLOUDY    45  42  89 E3        29.95F
BAY BRIDGE AP* CLOUDY    43  41  93 SE7       29.94F FOG
CAMBRIDGE*     CLOUDY    43  39  87 SE3       29.94F
EASTON*        PTSUNNY   45  39  81 SE6       29.99F FOG

$$

MDZ017>025-201800-
SOUTHERN MARYLAND

CITY           SKY/WX    TMP DP  RH WIND       PRES   REMARKS
PATUXENT RIVER CLOUDY    44  42  93 SE8       29.94F
ST INIGOES     CLOUDY    47  41  80 SE8       29.94F
LEONARDTOWN*   CLOUDY    46  39  76 SE7       29.94F

$$

MDZ003>005-201800-
NORTH CENTRAL MARYLAND

CITY           SKY/WX    TMP DP  RH WIND       PRES   REMARKS
FREDERICK*     CLOUDY    39  39 100 NW5       29.95F FOG
HAGERSTOWN APT CLOUDY    41  38  89 CALM      29.88R FOG
WESTMINSTER*     N/A     39  37  93 SE7       29.88F FOG

$$

MDZ501>502-201800-
WESTERN MARYLAND

CITY           SKY/WX    TMP DP  RH WIND       PRES   REMARKS
OAKLAND*         N/A     45  45 100 SW13G18   29.77F FOG
CUMBERLAND*    CLOUDY    41  41 100 CALM      29.88F

$$

VAZ025>031-201800-
SHENANDOAH VALLEY

CITY           SKY/WX    TMP DP  RH WIND       PRES   REMARKS
WINCHESTER*    CLOUDY    43  39  87 SE5       29.86F
FRONT ROYAL*   CLOUDY    43  41  93 CALM      29.85F
LURAY*         CLOUDY    50  46  87 SW8       29.85F
NEW MARKET*    CLOUDY    48  44  88 W6        29.86F
STAUNTON*      CLOUDY    50  46  85 S5        29.88F
WAYNESBORO*    CLOUDY    49  45  88 CALM      29.88F

$$

WVZ021-048>050-054>055-201800-
EASTERN WEST VIRGINIA PANHANDLE

CITY           SKY/WX    TMP DP  RH WIND       PRES   REMARKS
MARTINSBURG    CLOUDY    43  40  89 CALM      29.87F FOG
PETERSBURG*    CLOUDY    45  42  89 CALM      29.82F

$$

VAZ036>039-050-201800-
CENTRAL FOOTHILLS

CITY           SKY/WX    TMP DP  RH WIND       PRES   REMARKS
CHARLOTTESVILL CLOUDY    46  43  89 S5        29.90F
CULPEPER*      CLOUDY    45  43  94 S6        29.92F
ORANGE*          N/A     45  45 100 CALM      29.93F
GORDONSVILLE*  CLOUDY    45  44  98 SW6       29.91F
WARRENTON*     CLOUDY    46  41  85 S5        29.90F

$$

VAZ055>057-201800-
NORTH AND CENTRAL PIEDMONT

CITY           SKY/WX    TMP DP  RH WIND       PRES   REMARKS
FREDERICKSBRG* LGT RAIN  45  45 100 SW3       29.93S
STAFFORD*      DRIZZLE   44  44 100 CALM      29.97S

$$

NCZ024-NYZ072-PAZ021-071-VAZ022-071-201800-
OTHER REGIONAL OBSERVATIONS

CITY           SKY/WX    TMP DP  RH WIND       PRES   REMARKS
NEW YORK CITY  CLOUDY    44  34  67 CALM      30.01F
PHILADELPHIA   RAIN      40  35  83 NE5       29.98F
PITTSBURGH     CLOUDY    47  47 100 S3        29.71S
ROANOKE        CLOUDY    47  45  93 S5        29.91F
RICHMOND       LGT RAIN  46  44  93 SE5       29.93F
RALEIGH        CLOUDY    52  50  93 E5        29.89F FOG

$$

ANZ530>537-201800-
MARINE OBSERVATIONS

STATION/POSITION TIME  TEMP    WIND        PRES
                       AIR SEA DIR/SP/G
                 (UTC) (F)     (DEG/KT/KT) (MB)
THOMAS PT LIGHT  1700   40 40  120/  7/  7   N/A
BALT KEY BRIDGE  1642   40      80/  8/  9 1014.1F
COVE POINT       1642   41     190/  9/ 10 1014.7F
LEWISETTA        1642   47 44  190/  4/  5 1014.0F
SOLOMONS ISLAND  1642   42 41  110/  7/  7   N/A
PINEY POINT      1648          140/  9/  9   N/A

$$




USA.gov is the U.S. government's official web portal to all federal, state and local government web resources and services.